When you browse on this site, cookies collect data to enhance your experience and personalize the content and advertising you see.
Visit our Privacy Policy to learn more. By continuing to use the site, you agree to this use of cookies and data.
  • In Hungary
  • List of Countries
  • For 7 days
  • Water Temperature
  • Weather Map
  • News
  • Weather Widgets
  • user-avatar
    Login

    Hourly Weather Vigonza

    Today, 11 December, Wednesday

    Time Temperature Precipitation Wind Pressure Humidity
    00:00 +5°C° 0 mm 2 mps 766 mmHg 61%
    01:00 +4°C° 0 mm 2 mps 766 mmHg 60%
    02:00 +4°C° 0 mm 2 mps 765 mmHg 60%
    03:00 +3°C° 0 mm 2 mps 765 mmHg 59%
    04:00 +3°C° 0 mm 2 mps 764 mmHg 59%
    05:00 +3°C° 0 mm 2 mps 764 mmHg 58%
    06:00 +3°C° 0 mm 2 mps 764 mmHg 58%
    07:00 +1°C° 0 mm 3 mps 764 mmHg 57%
    08:00 +3°C° 0 mm 2 mps 763 mmHg 55%
    09:00 +4°C° 0 mm 2 mps 763 mmHg 53%
    10:00 +4°C° 0 mm 2 mps 762 mmHg 51%
    11:00 +5°C° 0 mm 2 mps 761 mmHg 49%
    12:00 +6°C° 0 mm 2 mps 761 mmHg 46%
    13:00 +8°C° 0 mm 1 mps 760 mmHg 44%
    14:00 +7°C° 0 mm 1 mps 759 mmHg 49%
    15:00 +7°C° 0 mm 1 mps 758 mmHg 55%
    16:00 +6°C° 0 mm 1 mps 758 mmHg 60%
    17:00 +6°C° 0 mm 1 mps 757 mmHg 62%
    18:00 +5°C° 0 mm 1 mps 757 mmHg 65%
    19:00 +5°C° 0 mm 1 mps 757 mmHg 68%
    20:00 +4°C° 0 mm 1 mps 757 mmHg 69%
    21:00 +4°C° 0 mm 1 mps 756 mmHg 69%
    22:00 +3°C° 0 mm 0 mps 756 mmHg 70%
    23:00 +4°C° 0 mm 1 mps 756 mmHg 70%

    Tomorrow, 12 December, Thursday

    Time Temperature Precipitation Wind Pressure Humidity
    00:00 +3°C° 0 mm 1 mps 755 mmHg 70%
    01:00 +3°C° 0 mm 1 mps 755 mmHg 70%
    02:00 +3°C° 0 mm 1 mps 754 mmHg 70%
    03:00 +3°C° 0 mm 1 mps 754 mmHg 70%
    04:00 +2°C° 0 mm 1 mps 753 mmHg 70%
    05:00 +3°C° 0 mm 1 mps 753 mmHg 69%
    06:00 +3°C° 0 mm 1 mps 754 mmHg 68%
    07:00 +3°C° 0 mm 1 mps 754 mmHg 67%
    08:00 +3°C° 0 mm 1 mps 754 mmHg 64%
    09:00 +4°C° 0 mm 1 mps 754 mmHg 62%
    10:00 +4°C° 0 mm 1 mps 754 mmHg 60%
    11:00 +5°C° 0 mm 1 mps 753 mmHg 59%
    12:00 +5°C° 0 mm 1 mps 753 mmHg 58%
    13:00 +6°C° 0 mm 1 mps 753 mmHg 57%
    14:00 +5°C° 0 mm 1 mps 753 mmHg 61%
    15:00 +4°C° 0 mm 2 mps 752 mmHg 65%
    16:00 +4°C° 0 mm 2 mps 752 mmHg 69%
    17:00 +4°C° 0 mm 2 mps 752 mmHg 72%
    18:00 +3°C° 0 mm 2 mps 752 mmHg 74%
    19:00 +3°C° 0 mm 2 mps 753 mmHg 77%
    20:00 +3°C° 0 mm 2 mps 752 mmHg 79%
    21:00 +2°C° 0 mm 2 mps 752 mmHg 80%
    22:00 +2°C° 0 mm 2 mps 752 mmHg 82%
    23:00 +2°C° 0 mm 2 mps 752 mmHg 83%

    Day after tomorrow, 13 December, Friday

    Time Temperature Precipitation Wind Pressure Humidity
    00:00 +2°C° 0 mm 2 mps 751 mmHg 85%
    01:00 +1°C° 0 mm 2 mps 751 mmHg 86%
    02:00 +1°C° 0 mm 2 mps 750 mmHg 86%
    03:00 +1°C° 0 mm 2 mps 750 mmHg 86%
    04:00 +2°C° 0 mm 1 mps 749 mmHg 85%
    05:00 +2°C° 0 mm 1 mps 749 mmHg 85%
    06:00 +2°C° 0 mm 1 mps 748 mmHg 85%
    07:00 +2°C° 0 mm 1 mps 748 mmHg 85%
    08:00 +2°C° 0 mm 1 mps 747 mmHg 83%
    09:00 +3°C° 0 mm 1 mps 746 mmHg 81%
    10:00 +3°C° 0 mm 2 mps 745 mmHg 78%
    11:00 +2°C° 0.2 mm 3 mps 744 mmHg 83%
    12:00 +1°C° 0.2 mm 4 mps 743 mmHg 87%
    13:00 +1°C° 0.2 mm 5 mps 742 mmHg 91%
    14:00 -1°C° 1.8 mm 6 mps 741 mmHg 93%
    15:00 -1°C° 1.8 mm 6 mps 740 mmHg 94%
    16:00 -1°C° 1.8 mm 6 mps 739 mmHg 95%
    17:00 +1°C° 1.5 mm 6 mps 740 mmHg 92%
    18:00 +1°C° 1.5 mm 5 mps 740 mmHg 90%
    19:00 +1°C° 1.5 mm 5 mps 740 mmHg 87%
    20:00 +1°C° 0.9 mm 5 mps 741 mmHg 87%
    21:00 +1°C° 0.9 mm 4 mps 742 mmHg 88%
    22:00 +1°C° 0.9 mm 4 mps 743 mmHg 88%
    23:00 +1°C° 0.1 mm 4 mps 744 mmHg 87%

    14 December, Saturday

    Time Temperature Precipitation Wind Pressure Humidity
    00:00 +1°C° 0.1 mm 4 mps 745 mmHg 85%
    01:00 0°C° 0.1 mm 4 mps 746 mmHg 84%
    02:00 0°C° 0 mm 4 mps 747 mmHg 85%
    03:00 +1°C° 0 mm 3 mps 748 mmHg 86%
    04:00 0°C° 0 mm 3 mps 750 mmHg 87%
    05:00 0°C° 0 mm 3 mps 751 mmHg 85%
    06:00 +1°C° 0 mm 2 mps 752 mmHg 83%
    07:00 +2°C° 0 mm 1 mps 752 mmHg 81%
    08:00 +3°C° 0 mm 1 mps 753 mmHg 77%
    09:00 +4°C° 0 mm 1 mps 754 mmHg 74%
    10:00 +4°C° 0 mm 0 mps 754 mmHg 70%
    11:00 +4°C° 0 mm 0 mps 754 mmHg 68%
    12:00 +6°C° 0 mm 1 mps 754 mmHg 66%
    13:00 +7°C° 0 mm 1 mps 754 mmHg 63%
    14:00 +7°C° 0 mm 1 mps 755 mmHg 66%
    15:00 +6°C° 0 mm 1 mps 755 mmHg 70%
    16:00 +5°C° 0 mm 0 mps 756 mmHg 73%
    17:00 +5°C° 0 mm 1 mps 757 mmHg 73%
    18:00 +5°C° 0 mm 1 mps 757 mmHg 74%
    19:00 +5°C° 0 mm 1 mps 758 mmHg 75%
    20:00 +5°C° 0 mm 1 mps 758 mmHg 75%
    21:00 +5°C° 0 mm 1 mps 759 mmHg 75%
    22:00 +4°C° 0 mm 1 mps 759 mmHg 75%
    23:00 +4°C° 0 mm 1 mps 759 mmHg 74%

    15 December, Sunday

    Time Temperature Precipitation Wind Pressure Humidity
    00:00 +4°C° 0 mm 1 mps 759 mmHg 74%
    01:00 +4°C° 0 mm 1 mps 759 mmHg 74%
    02:00 +4°C° 0 mm 1 mps 760 mmHg 74%
    03:00 +4°C° 0 mm 1 mps 760 mmHg 73%
    04:00 +4°C° 0 mm 1 mps 760 mmHg 73%
    05:00 +4°C° 0 mm 1 mps 760 mmHg 72%
    06:00 +4°C° 0 mm 1 mps 760 mmHg 72%
    07:00 +4°C° 0 mm 1 mps 760 mmHg 71%
    08:00 +5°C° 0 mm 1 mps 761 mmHg 69%
    09:00 +6°C° 0 mm 1 mps 761 mmHg 68%
    10:00 +6°C° 0 mm 1 mps 761 mmHg 66%
    11:00 +7°C° 0 mm 1 mps 761 mmHg 64%
    12:00 +8°C° 0 mm 1 mps 761 mmHg 63%
    13:00 +9°C° 0 mm 1 mps 761 mmHg 61%
    14:00 +8°C° 0 mm 1 mps 762 mmHg 64%
    15:00 +8°C° 0 mm 1 mps 762 mmHg 68%
    16:00 +7°C° 0 mm 1 mps 762 mmHg 72%
    17:00 +7°C° 0 mm 1 mps 763 mmHg 72%
    18:00 +7°C° 0 mm 1 mps 763 mmHg 72%
    19:00 +7°C° 0 mm 1 mps 764 mmHg 72%
    20:00 +7°C° 0 mm 1 mps 764 mmHg 71%
    21:00 +7°C° 0 mm 1 mps 764 mmHg 71%
    22:00 +7°C° 0 mm 1 mps 765 mmHg 70%
    23:00 +7°C° 0 mm 1 mps 765 mmHg 70%

    16 December, Monday

    Time Temperature Precipitation Wind Pressure Humidity
    00:00 +7°C° 0 mm 1 mps 765 mmHg 70%
    01:00 +7°C° 0 mm 1 mps 765 mmHg 70%
    02:00 +7°C° 0 mm 1 mps 765 mmHg 71%
    03:00 +7°C° 0 mm 1 mps 765 mmHg 71%
    04:00 +7°C° 0 mm 1 mps 765 mmHg 71%
    05:00 +7°C° 0 mm 1 mps 766 mmHg 72%
    06:00 +7°C° 0 mm 1 mps 766 mmHg 72%
    07:00 +7°C° 0 mm 1 mps 766 mmHg 72%
    08:00 +7°C° 0 mm 1 mps 766 mmHg 72%
    09:00 +7°C° 0 mm 1 mps 766 mmHg 73%
    10:00 +8°C° 0 mm 1 mps 766 mmHg 73%
    11:00 +8°C° 0 mm 1 mps 766 mmHg 71%
    12:00 +9°C° 0 mm 1 mps 765 mmHg 69%
    13:00 +9°C° 0 mm 1 mps 765 mmHg 67%
    14:00 +9°C° 0 mm 1 mps 765 mmHg 69%
    15:00 +8°C° 0 mm 0 mps 765 mmHg 72%
    16:00 +8°C° 0 mm 0 mps 765 mmHg 74%
    17:00 +7°C° 0 mm 0 mps 765 mmHg 75%
    18:00 +7°C° 0 mm 0 mps 765 mmHg 75%
    19:00 +7°C° 0 mm 0 mps 765 mmHg 76%
    20:00 +8°C° 0 mm 1 mps 765 mmHg 76%
    21:00 +8°C° 0 mm 1 mps 765 mmHg 77%
    22:00 +8°C° 0 mm 1 mps 765 mmHg 78%
    23:00 +7°C° 0 mm 2 mps 764 mmHg 78%
    Show more